Wind_Speed
4 4 5 5 5 5 5 5 5 5 5 6 5 5 5 5 5 6 6 6 5 6 6 6 5 5 4 4 4 4 5 5 4 5 5 5 6 5 5 5 5 5 5
4 4 4 5 6 6 6 6 6 6 6 6 6 7 6 6 6 6 6 7 6 6 6 6 6 5 5 5 5 6 7 6 6 5 5 6 6 7 6 6 6 6 6
4 4 5 5 6 6 6 6 6 6 7 7 7 7 7 7 6 6 7 7 7 6 6 6 6 6 6 5 5 6 6 6 6 6 6 6 7 7 7 7 7 7 7
5 5 5 6 6 6 6 7 7 7 7 7 7 7 7 6 6 6 6 6 6 6 6 6 6 6 6 5 5 6 6 7 7 7 6 7 7 8 8 8 9 8 9
5 5 6 6 6 6 6 7 7 8 7 7 7 7 6 6 6 6 6 6 6 6 6 6 7 7 6 6 6 6 7 6 6 7 7 7 7 7 8 9 9 9 9
6 6 6 6 7 7 7 7 7 7 8 8 7 7 6 6 6 6 6 7 7 7 7 7 8 8 7 7 6 6 7 7 7 7 8 8 9 8 9 10 10 10 10
6 6 7 7 7 7 6 6 7 7 7 8 8 7 7 6 6 6 6 7 7 8 8 8 8 8 9 8 8 8 8 7 8 8 8 9 9 10 10 11 11 12 11
6 6 6 7 7 6 6 7 7 6 7 7 7 7 7 7 7 6 6 7 8 8 8 9 9 9 9 9 9 9 10 10 9 9 9 10 10 11 11 12 12 13 12
5 5 6 6 6 6 7 7 7 6 6 6 7 7 7 7 7 6 7 7 8 8 8 9 9 10 9 10 10 10 11 10 11 10 11 10 10 11 11 11 12 12 13
5 5 5 6 6 6 6 6 6 6 6 6 7 7 7 7 7 7 7 8 8 9 9 9 9 9 9 10 9 10 10 11 11 11 10 10 11 11 11 12 12 12 12
5 5 5 5 5 6 6 6 6 7 7 7 7 7 7 7 8 8 7 8 8 8 8 9 10 9 10 10 9 9 9 10 10 10 10 10 11 12 12 12 12 12 12
5 5 5 5 5 5 6 6 6 6 6 7 8 8 8 8 8 8 8 8 8 9 9 9 10 9 10 10 10 10 10 10 9 9 9 10 10 10 11 12 11 12 12
5 6 6 5 5 4 4 4 5 5 5 6 7 7 8 7 7 7 8 9 9 9 9 9 10 9 10 10 10 11 11 11 10 9 9 10 10 10 11 11 11 11 12
5 5 5 4 4 3 3 4 4 5 5 5 6 6 6 7 7 7 8 9 9 9 9 9 9 9 10 10 10 10 10 11 11 10 10 10 11 11 11 11 11 11 11
5 4 4 3 3 2 2 2 3 4 5 5 5 5 6 6 6 7 8 8 8 8 9 9 9 9 10 10 10 10 10 10 10 10 9 9 10 10 10 9 10 11 12
5 4 4 3 3 2 2 2 2 3 3 5 5 5 6 6 6 7 7 7 7 7 8 9 9 9 10 9 9 10 10 10 10 10 10 10 10 10 10 10 11 12 13
5 5 4 3 3 2 2 2 3 3 3 4 5 5 5 6 6 5 5 5 5 6 7 8 8 8 8 9 9 9 9 9 10 9 9 10 10 10 11 11 11 12 12
6 5 5 4 4 3 3 3 3 3 3 3 3 4 4 4 4 5 5 6 6 5 5 5 6 6 7 8 8 8 8 8 8 9 9 10 10 11 11 11 11 12 12
6 6 5 5 4 4 3 3 3 3 3 3 3 3 4 4 3 4 5 5 5 5 5 5 6 6 7 8 8 8 8 8 8 9 9 9 10 10 11 11 11 11 12
6 6 5 5 5 4 3 3 3 3 3 2 2 3 3 4 3 3 4 4 5 5 6 5 6 6 6 7 8 8 8 8 8 9 9 9 9 9 10 11 11 11 11
6 6 6 5 5 4 4 4 4 3 3 3 3 3 4 4 4 4 4 4 5 5 6 6 6 6 6 7 7 8 8 8 9 9 9 9 9 9 9 9 9 10 10
6 6 6 6 5 5 5 5 4 4 4 4 4 5 5 5 5 5 5 5 5 6 6 7 6 6 7 7 7 7 8 8 8 8 9 9 9 9 9 10 10 10 11
7 7 7 7 6 5 6 6 6 5 5 5 5 5 6 6 6 6 6 6 5 6 6 7 7 7 7 7 7 7 7 8 8 9 9 9 10 10 10 11 11 11 11
8 7 7 7 6 6 6 6 6 6 6 6 6 5 6 6 6 6 6 6 6 6 6 7 7 7 8 8 9 9 9 10 10 10 10 10 11 11 11 11 11 12 13
9 8 8 8 8 8 7 7 6 7 7 7 7 6 6 6 7 7 7 7 7 8 8 8 8 8 9 9 10 10 10 10 10 10 10 11 12 12 12 12 12 13 13
9 9 8 8 8 8 8 8 8 8 8 8 8 8 8 8 8 8 8 8 9 9 9 10 10 9 10 10 11 11 11 11 11 11 11 12 12 12 13 13 13 13 13
Wind_Direction
275 273 276 265 258 259 262 259 256 253 251 249 252 256 251 250 251 246 239 238 241 245 246 246 252 258 265 270 261 250 247 241 234 238 241 235 233 233 236 235 230 230 228
281 277 274 266 263 263 262 261 260 258 257 254 252 254 253 250 245 242 238 235 239 244 246 245 251 255 262 266 256 253 250 246 243 247 247 243 242 241 240 243 239 236 236
274 271 271 272 270 266 265 262 260 258 256 258 256 255 258 252 244 239 238 236 238 242 243 240 245 256 262 262 256 257 255 251 251 252 251 246 246 244 240 245 244 241 240
273 271 270 270 269 266 263 261 260 259 259 260 260 259 258 251 240 236 235 235 236 241 242 239 244 251 256 257 259 257 260 255 254 253 249 249 249 246 245 244 246 247 245
280 275 271 269 270 266 263 263 261 258 255 256 259 256 253 247 238 233 234 233 237 244 247 247 247 248 253 260 259 256 261 259 256 253 248 247 249 249 252 250 251 251 249
276 275 274 271 270 267 263 262 263 258 253 252 255 253 252 243 239 236 238 238 240 244 250 252 252 250 252 253 257 259 264 264 259 256 250 250 248 254 261 258 256 252 252
277 275 273 272 269 265 262 258 258 261 257 252 249 248 244 241 243 243 247 248 249 252 250 252 251 252 252 252 258 258 260 263 261 259 254 254 253 256 259 259 258 254 255
285 284 279 274 270 266 260 258 257 258 257 254 247 240 242 241 241 244 251 249 248 248 248 249 249 248 251 257 261 260 261 262 257 258 257 257 256 258 260 259 260 261 257
291 289 290 280 273 270 265 257 254 254 255 252 241 231 236 239 244 245 244 246 245 246 248 248 248 248 251 257 262 266 265 262 261 260 260 258 256 258 260 262 261 260 260
296 294 294 286 280 272 265 259 252 248 246 244 239 236 235 236 243 245 245 243 245 249 253 251 251 252 253 258 263 266 265 262 261 260 262 260 259 261 261 263 263 264 266
300 295 293 292 284 277 269 260 253 248 245 240 240 242 239 241 246 247 246 244 245 247 250 250 253 255 256 260 262 265 265 264 259 259 259 260 264 267 267 267 266 267 267
311 305 304 301 299 285 271 260 254 252 245 242 242 243 243 245 247 246 245 244 243 246 252 256 256 255 256 259 261 262 263 265 264 262 261 261 264 268 269 269 268 268 267
316 310 316 311 308 293 271 261 259 254 248 247 247 245 242 242 245 247 247 247 248 251 256 260 263 261 260 260 260 259 262 263 263 264 263 264 266 270 271 268 270 269 267
332 321 322 320 317 302 279 268 262 250 248 249 254 250 250 247 247 249 249 250 252 255 258 262 266 267 262 258 258 260 261 262 260 261 261 262 265 266 268 268 269 272 271
346 336 332 334 326 311 287 272 269 255 246 246 248 247 253 251 251 253 248 250 255 260 260 262 265 267 262 257 259 262 262 261 259 258 259 261 263 264 265 266 270 272 273
356 350 342 343 336 326 308 289 281 268 254 249 248 249 254 255 257 257 252 254 258 260 263 263 263 267 260 256 263 265 261 256 256 258 261 264 268 270 266 268 273 275 277
0 1 359 358 342 325 316 305 297 282 276 260 256 258 258 262 259 260 256 253 259 262 260 260 263 261 257 256 261 264 260 255 257 260 265 267 269 269 269 273 276 279 281
358 355 355 349 336 325 318 318 311 293 289 273 261 260 257 262 262 262 259 261 267 272 266 258 268 268 264 260 262 260 260 260 261 263 266 267 267 268 271 272 276 280 284
349 349 344 338 335 333 323 319 317 302 297 289 266 266 265 267 266 266 266 271 273 277 279 275 274 274 270 263 259 258 262 265 266 267 268 269 269 272 273 274 277 281 284
342 341 337 328 327 330 329 317 309 297 300 309 294 289 288 276 265 265 277 279 273 276 279 276 275 274 271 262 259 262 266 267 271 272 273 274 277 277 276 277 278 281 285
336 333 332 326 322 319 315 310 308 296 295 295 294 290 287 278 273 272 277 281 276 275 278 276 273 276 271 267 264 265 267 269 271 276 277 278 280 280 281 282 282 285 288
326 328 325 324 319 307 298 296 295 294 289 288 285 279 275 273 275 278 282 282 274 273 273 274 272 275 278 275 269 269 275 273 272 276 279 279 281 282 282 282 283 286 287
316 319 321 320 313 301 295 292 290 286 285 286 285 278 271 272 274 277 281 279 273 270 270 272 271 272 277 280 276 277 279 277 278 281 281 280 280 283 284 285 287 287 285
308 311 313 313 307 299 292 289 286 284 285 288 289 283 278 278 278 278 279 277 275 272 273 277 278 275 275 279 281 281 281 280 279 280 279 282 282 281 281 283 284 284 283
302 304 306 306 301 297 291 286 283 282 282 284 284 283 282 282 280 277 276 276 277 278 277 278 277 274 274 277 278 280 282 281 278 277 279 282 285 284 282 282 284 286 286
299 301 304 303 301 296 291 285 282 280 281 281 280 279 279 280 282 278 276 278 278 277 278 279 279 277 279 279 278 278 279 282 281 280 281 282 284 285 284 284 283 283 283
Height
5870 5869 5869 5869 5869 5869 5869 5870 5870 5870 5870 5871 5871 5871 5871 5871 5872 5872 5873 5874 5874 5875 5876 5877 5877 5878 5878 5878 5879 5880 5880 5880 5881 5882 5883 5884 5884 5885 5886 5886 5887 5887 5888
5869 5868 5868 5868 5868 5868 5868 5869 5869 5869 5869 5869 5870 5870 5870 5870 5871 5871 5872 5873 5873 5874 5875 5876 5876 5877 5877 5878 5878 5879 5879 5879 5880 5881 5882 5882 5883 5884 5884 5885 5886 5886 5887
5868 5868 5868 5867 5867 5867 5867 5867 5867 5867 5868 5868 5868 5868 5869 5869 5869 5870 5870 5871 5872 5873 5874 5875 5875 5876 5876 5877 5878 5878 5878 5879 5879 5880 5881 5881 5882 5882 5883 5884 5884 5885 5885
5867 5867 5867 5866 5866 5866 5866 5866 5866 5866 5866 5867 5867 5867 5867 5867 5867 5868 5869 5870 5871 5872 5873 5874 5874 5875 5875 5876 5877 5877 5877 5878 5878 5879 5879 5880 5881 5881 5882 5882 5883 5883 5884
5866 5865 5865 5865 5865 5865 5864 5864 5864 5864 5865 5865 5865 5865 5865 5865 5866 5867 5868 5869 5870 5871 5872 5873 5873 5874 5874 5875 5875 5876 5876 5877 5877 5878 5878 5879 5879 5879 5880 5880 5881 5882 5882
5864 5864 5864 5864 5863 5863 5863 5863 5863 5863 5863 5863 5864 5864 5864 5864 5865 5865 5867 5867 5869 5870 5870 5871 5872 5873 5873 5874 5874 5875 5875 5875 5876 5876 5877 5877 5878 5878 5878 5879 5879 5880 5880
5863 5863 5862 5862 5862 5862 5861 5861 5861 5861 5862 5862 5862 5863 5863 5863 5864 5865 5866 5866 5867 5868 5869 5870 5871 5871 5872 5872 5873 5873 5874 5874 5875 5875 5876 5876 5876 5877 5877 5877 5877 5878 5878
5862 5861 5861 5860 5860 5860 5860 5860 5860 5860 5860 5861 5861 5861 5862 5862 5863 5864 5864 5865 5866 5867 5867 5868 5869 5869 5870 5871 5871 5872 5872 5873 5873 5874 5874 5874 5874 5875 5875 5875 5875 5876 5876
5860 5860 5859 5859 5859 5858 5858 5858 5858 5859 5859 5859 5859 5860 5861 5861 5862 5862 5863 5864 5864 5865 5866 5866 5867 5868 5868 5869 5869 5870 5870 5871 5871 5871 5872 5872 5872 5872 5873 5873 5873 5873 5874
5859 5859 5858 5858 5857 5857 5857 5857 5857 5857 5857 5858 5858 5859 5859 5860 5861 5861 5862 5863 5863 5864 5864 5865 5865 5866 5866 5867 5867 5868 5868 5869 5869 5869 5870 5870 5870 5870 5870 5871 5871 5871 5871
5859 5858 5857 5856 5856 5856 5855 5855 5855 5856 5856 5856 5857 5857 5858 5859 5859 5860 5861 5861 5861 5862 5862 5863 5863 5864 5865 5865 5866 5866 5866 5867 5867 5867 5868 5868 5868 5868 5868 5868 5869 5869 5869
5858 5857 5856 5855 5855 5854 5854 5854 5854 5854 5855 5855 5855 5856 5857 5857 5858 5858 5859 5859 5860 5860 5861 5861 5862 5862 5863 5863 5864 5864 5864 5865 5865 5865 5865 5865 5866 5866 5866 5866 5866 5866 5867
5857 5856 5855 5854 5854 5853 5853 5853 5853 5853 5853 5854 5854 5855 5855 5856 5856 5857 5857 5858 5858 5859 5859 5859 5860 5860 5860 5861 5862 5862 5862 5862 5863 5863 5863 5863 5863 5864 5864 5864 5864 5864 5864
5856 5855 5855 5854 5853 5852 5852 5852 5852 5852 5852 5853 5853 5853 5854 5854 5855 5855 5856 5856 5856 5857 5857 5857 5858 5858 5858 5859 5859 5860 5860 5860 5860 5861 5861 5861 5861 5861 5861 5861 5861 5861 5861
5855 5855 5854 5853 5853 5852 5852 5851 5851 5851 5851 5852 5852 5852 5853 5853 5853 5854 5854 5854 5855 5855 5855 5855 5856 5856 5856 5856 5857 5857 5858 5858 5858 5859 5859 5859 5859 5859 5859 5859 5859 5859 5859
5855 5854 5854 5853 5852 5852 5851 5851 5850 5850 5850 5851 5851 5851 5851 5852 5852 5852 5852 5853 5853 5853 5852 5853 5853 5854 5854 5855 5855 5855 5856 5856 5856 5856 5857 5857 5857 5857 5857 5857 5856 5856 5856
5855 5854 5853 5853 5852 5851 5851 5850 5850 5850 5850 5850 5850 5850 5850 5850 5850 5851 5851 5851 5851 5851 5850 5850 5851 5852 5852 5853 5853 5853 5854 5854 5854 5854 5854 5855 5855 5855 5855 5855 5854 5854 5853
5855 5854 5853 5852 5852 5851 5851 5850 5849 5849 5849 5849 5849 5849 5849 5849 5849 5849 5850 5850 5849 5849 5849 5849 5850 5850 5851 5851 5851 5852 5852 5852 5852 5852 5852 5852 5852 5852 5852 5852 5852 5851 5851
5855 5854 5853 5852 5851 5851 5850 5849 5849 5848 5848 5848 5848 5848 5848 5848 5848 5849 5849 5849 5848 5849 5848 5848 5848 5848 5849 5849 5849 5850 5850 5850 5850 5850 5850 5850 5850 5850 5850 5850 5849 5849 5848
5855 5854 5853 5852 5851 5850 5850 5849 5848 5848 5848 5847 5847 5847 5847 5847 5847 5847 5847 5847 5847 5847 5847 5847 5847 5847 5847 5847 5847 5848 5848 5848 5848 5848 5848 5848 5848 5848 5847 5847 5847 5847 5846
5854 5853 5852 5851 5850 5849 5849 5848 5848 5847 5847 5847 5846 5846 5846 5846 5846 5846 5846 5846 5846 5846 5846 5846 5846 5846 5846 5846 5846 5846 5846 5846 5846 5846 5846 5845 5845 5845 5845 5845 5844 5844 5843
5854 5853 5851 5850 5849 5849 5848 5848 5847 5847 5846 5846 5846 5845 5845 5845 5845 5845 5845 5844 5844 5844 5844 5844 5844 5844 5844 5844 5844 5844 5844 5844 5844 5844 5844 5843 5843 5843 5842 5842 5842 5841 5841
5853 5852 5850 5849 5848 5848 5847 5846 5846 5846 5845 5845 5844 5844 5844 5843 5843 5843 5843 5843 5843 5843 5842 5842 5842 5842 5842 5842 5842 5842 5842 5841 5841 5841 5841 5841 5841 5840 5840 5839 5839 5838 5838
5851 5850 5849 5848 5847 5846 5845 5845 5845 5844 5844 5843 5843 5842 5842 5842 5841 5841 5841 5841 5841 5841 5841 5840 5840 5840 5840 5840 5840 5839 5839 5839 5839 5839 5839 5838 5838 5837 5837 5836 5836 5835 5834
5849 5849 5848 5846 5845 5845 5844 5844 5843 5843 5842 5842 5841 5841 5840 5840 5840 5839 5839 5839 5839 5839 5838 5838 5838 5838 5838 5837 5837 5837 5836 5836 5836 5836 5836 5836 5835 5835 5834 5833 5833 5832 5831
5847 5846 5845 5844 5843 5843 5842 5842 5841 5841 5840 5840 5839 5839 5838 5838 5838 5837 5837 5837 5836 5836 5836 5836 5836 5835 5835 5835 5835 5834 5834 5834 5833 5833 5833 5833 5832 5832 5831 5830 5829 5829 5827